Location: B
(0.0000°N, 0.0000°E)
Time: 19:57:54
(UTC+02:00)

Amateur Radio Satellites - All Passes

Search period start: 31 May 2016 19:27
Search period end: 01 June 2016 19:27
Location: B, 0.0000°N, 0.0000°E

Satellite Date Start Highest point End Downlink Frequencies (MHz)
Time Altitude Azimuth
SRMSAT 31 May 19:34:54 19:38:07 15° 192° (SSW) 19:41:22 437.500
Cubesat XI-IV 31 May 19:47:16 19:52:31 61° 77° (ENE) 19:57:44 437.490
NOAA 18 31 May 20:20:18 20:25:30 43° 257° (WSW) 20:30:39 137.9125
BRITE-PL 31 May 20:23:29 20:28:29 40° 259° (W) 20:33:43 437.365/2234.400
GOMX 1 31 May 20:25:56 20:31:23 87° 255° (WSW) 20:36:53 467.674
STRAND 1 31 May 20:32:14 20:37:08 45° 103° (ESE) 20:42:03 437.568
CUTE-I 31 May 20:32:27 20:37:21 38° 257° (WSW) 20:42:14 437.470
LilacSat-2 31 May 20:33:00 20:36:08 24° 258° (WSW) 20:39:14 437.200
AUBIESAT-1 31 May 20:48:50 20:50:50 13° 76° (ENE) 20:52:45 437.475
DOVE 4 31 May 20:53:27 20:58:47 85° 79° (E) 21:04:02 437.250
CINEMA 3 31 May 20:54:40 20:58:06 19° 79° (E) 21:01:27 145.822/145.860
HO-68 31 May 20:57:20 21:03:18 29° 75° (ENE) 21:09:14 435.675
M-CUBED/EXP-1 PRIME 31 May 20:57:46 21:01:22 24° 76° (ENE) 21:04:47 437.505
PCSat 31 May 21:09:01 21:14:21 65° 251° (WSW) 21:19:42 145.827
SEEDS 31 May 21:10:53 21:13:22 15° 78° (ENE) 21:15:51 437.485
JUGNU 31 May 21:14:49 21:17:13 12° 170° (S) 21:19:38 437.505
CANX-2 31 May 21:15:37 21:19:26 34° 79° (E) 21:23:14 2200.000
O/OREOS (USA 219) 31 May 21:28:38 21:32:51 43° 256° (WSW) 21:37:07 437.305
CUTE 1.7 + AOD 2 31 May 21:41:37 21:45:49 73° 78° (ENE) 21:49:59 437.475
AAUSAT CUBESAT 2 31 May 21:46:10 21:49:31 24° 79° (ENE) 21:52:52 437.432
COMPASS 1 31 May 21:47:34 21:51:21 35° 79° (ENE) 21:55:06 437.405
BEESAT 2 31 May 22:00:32 22:03:29 20° 68° (ENE) 22:06:25 435.950
PRISM 31 May 22:04:29 22:08:36 87° 103° (ESE) 22:12:43 437.425
Oscar 11 31 May 22:04:58 22:07:16 14° 78° (ENE) 22:09:33 145.826/435.025
AIST 1 31 May 22:09:18 22:13:21 37° 274° (W) 22:17:24
STRAND 1 31 May 22:15:05 22:16:01 10° 283° (WNW) 22:16:57 437.568
AUBIESAT-1 31 May 22:21:17 22:25:05 27° 253° (WSW) 22:28:41 437.475
BEESAT 3 31 May 22:25:39 22:29:33 71° 248° (WSW) 22:33:26 437.485
ZACube-1 31 May 22:26:35 22:30:12 26° 79° (E) 22:33:44 437.345
CINEMA 3 31 May 22:31:06 22:34:58 23° 257° (WSW) 22:38:44 145.822/145.860
M-CUBED/EXP-1 PRIME 31 May 22:32:47 22:35:35 16° 252° (WSW) 22:38:18 437.505
GONETS M04 31 May 22:39:47 22:48:40 90° 253° (WSW) 22:57:29
HO-68 31 May 22:44:36 22:50:41 31° 255° (WSW) 22:56:47 435.675
SEEDS 31 May 22:45:50 22:48:48 19° 258° (WSW) 22:51:47 437.485
CUBEBUG 2 31 May 22:50:36 22:55:00 47° 258° (WSW) 22:59:15 437.445
FUNcube-1 31 May 23:01:27 23:05:49 81° 78° (ENE) 23:10:02 145.935
JUGNU 31 May 23:02:07 23:06:54 26° 162° (SSE) 23:11:41 437.505
UWE-3 31 May 23:10:01 23:14:13 40° 258° (WSW) 23:18:16 435.000/436.395/437.385
DELFI C3 31 May 23:14:15 23:18:07 56° 79° (ENE) 23:21:59 145.870
SRMSAT 31 May 23:16:25 23:18:44 12° 171° (S) 23:21:04 437.500
AAUSAT CUBESAT 2 31 May 23:23:18 23:24:45 12° 258° (WSW) 23:26:11 437.432
SO-50 31 May 23:24:01 23:28:48 77° 291° (WNW) 23:33:40 436.795
Cosmos 2499 31 May 23:25:45 23:32:46 70° 273° (W) 23:40:00 435.465 / 435.565
ANTELSAT 31 May 23:28:40 23:32:33 29° 102° (ESE) 23:36:30 437.575/2403.000
HUMSAT D 31 May 23:31:54 23:35:39 34° 79° (ENE) 23:39:21 437.325/437.525
BEESAT 2 31 May 23:39:03 23:41:04 14° 248° (WSW) 23:43:04 435.950
Oscar 11 31 May 23:39:45 23:43:07 22° 258° (WSW) 23:46:29 145.826/435.025
ZACube-1 01 Jun 00:04:24 00:06:11 12° 257° (WSW) 00:07:58 437.345
CUSAT 1 01 Jun 00:18:15 00:23:51 81° 265° (W) 00:28:01 437.405
50 SAT 01 Jun 00:22:13 00:23:03 11° 78° (ENE) 00:23:53 437.505
UNISAT 6 01 Jun 00:23:44 00:27:58 45° 282° (WNW) 00:32:21 437.425
ESTCUBE 1 01 Jun 00:23:57 00:27:27 22° 78° (ENE) 00:30:57 437.505/2401.250
VELOX 1 01 Jun 00:28:00 00:30:29 15° 78° (ENE) 00:32:58 145.980
TIGRISAT 01 Jun 00:29:48 00:33:57 40° 281° (WNW) 00:38:14 435.000
AIST 2 01 Jun 00:45:48 00:49:53 65° 248° (WSW) 00:53:59 435.215
UKube-1 01 Jun 00:47:40 00:50:24 16° 78° (ENE) 00:53:05 .
QB50P1 01 Jun 00:49:36 00:53:35 43° 102° (ESE) 00:57:36 145.935-145.965
POPSAT HIP 1 01 Jun 00:49:39 00:53:38 42° 102° (ESE) 00:57:38 437.405
JUGNU 01 Jun 00:50:15 00:56:05 67° 159° (SSE) 01:01:57 437.505
DANDE 01 Jun 00:52:09 00:59:12 90° 256° (WSW) 01:04:31 436.750
QB50P2 01 Jun 00:53:25 00:57:31 53° 102° (ESE) 01:01:40 145.880/145.840
POLYITAN 1 01 Jun 00:55:53 01:00:00 55° 102° (ESE) 01:04:10 437.675
AISAT 01 Jun 01:02:47 01:07:08 50° 78° (ENE) 01:11:27 437.250
SRMSAT 01 Jun 01:03:55 01:08:40 24° 163° (SSE) 01:13:25 437.500
NANOSAT C BR1 01 Jun 01:05:13 01:09:22 71° 101° (E) 01:13:35 145.865
ANTELSAT 01 Jun 01:07:09 01:09:01 12° 281° (WNW) 01:10:54 437.575/2403.000
BUGSAT 1 01 Jun 01:40:46 01:44:47 81° 104° (ESE) 01:48:49 437.445
DX 1 01 Jun 01:41:14 01:45:34 60° 258° (WSW) 01:49:52 434.975-435.025
DUCHIFAT 1 01 Jun 01:41:56 01:45:43 34° 281° (WNW) 01:49:32 145.980
CUBEBUG 1 01 Jun 01:43:24 01:47:34 41° 258° (WSW) 01:51:45 437.445
SPROUT 01 Jun 01:49:24 01:53:41 68° 78° (ENE) 01:57:56 437.525
50 SAT 01 Jun 01:53:53 01:56:31 19° 258° (WSW) 01:59:09 437.505
TISAT 1 01 Jun 01:58:23 02:00:57 16° 78° (ENE) 02:03:31 437.305
ESTCUBE 1 01 Jun 02:01:13 02:03:59 16° 258° (WSW) 02:06:46 437.505/2401.250
VELOX 1 01 Jun 02:03:05 02:06:41 24° 258° (WSW) 02:10:17 145.980
JAS-2 01 Jun 02:14:54 02:21:00 54° 101° (ESE) 02:26:27 435.910
UKube-1 01 Jun 02:22:57 02:26:10 20° 258° (WSW) 02:29:22 .
JUGNU 01 Jun 02:39:33 02:45:08 44° 340° (NNW) 02:50:45 437.505
Oscar 19 01 Jun 02:51:18 02:56:18 56° 102° (ESE) 03:01:19 437.125/150
SRMSAT 01 Jun 02:52:10 02:58:04 61° 159° (SSE) 03:04:00 437.500
SWISSCUBE 01 Jun 03:13:54 03:17:44 25° 77° (ENE) 03:21:34 437.505
ITUPSAT 1 01 Jun 03:22:26 03:26:26 27° 77° (ENE) 03:30:25 437.325
YUBILEINY 01 Jun 03:29:42 03:34:36 16° 87° (E) 03:39:30 435.215
TISAT 1 01 Jun 03:33:12 03:36:20 20° 258° (WSW) 03:39:28 437.305
BEESAT 01 Jun 03:42:15 03:46:52 52° 78° (ENE) 03:51:28 436.000
ITAMSAT 1 01 Jun 03:44:01 03:48:02 23° 103° (ESE) 03:52:04 435.822/435.867
Gurwin Techsat 1B 01 Jun 03:50:43 03:56:02 85° 283° (WNW) 04:01:23 435.225
Cosmos 2491 01 Jun 03:56:14 04:03:58 34° 93° (E) 04:11:38 435.465 / 435.565
JAS-2 01 Jun 04:04:21 04:05:29 11° 287° (WNW) 04:06:36 435.910
JUGNU 01 Jun 04:30:29 04:34:31 19° 345° (NNW) 04:38:35 437.505
RS-15 01 Jun 04:32:57 04:45:12 75° 69° (ENE) 04:56:59 29.354- 29.394
SRMSAT 01 Jun 04:41:32 04:47:19 49° 340° (NNW) 04:53:06 437.500
AO-85 01 Jun 04:50:01 04:55:14 84° 111° (ESE) 05:00:40 145.980
AO-7 01 Jun 04:51:35 04:59:30 47° 106° (ESE) 05:07:24 29.400- 29.500
SWISSCUBE 01 Jun 04:52:16 04:55:15 17° 257° (WSW) 04:58:14 437.505
KKS-1 01 Jun 04:59:44 05:03:55 38° 78° (ENE) 05:08:03 437.445
PHONESAT 2.4 01 Jun 05:01:15 05:03:29 18° 42° (NE) 05:05:45 2401.200-2431.200
ITUPSAT 1 01 Jun 05:01:18 05:04:00 15° 257° (WSW) 05:06:41 437.325
YUBILEINY 01 Jun 05:22:23 05:30:59 60° 267° (W) 05:39:39 435.215
Cosmos 2504 01 Jun 05:22:29 05:30:05 32° 87° (E) 05:37:36 435.465 / 435.565
STARS 01 Jun 05:22:47 05:26:46 33° 78° (ENE) 05:30:44 437.465
ITAMSAT 1 01 Jun 05:23:14 05:27:14 22° 283° (WNW) 05:31:15 435.822/435.867
MOZHAYETS 4 01 Jun 05:48:59 05:53:29 61° 258° (WSW) 05:57:58
Cosmos 2491 01 Jun 05:52:56 06:00:23 31° 273° (W) 06:07:51 435.465 / 435.565
ISS 01 Jun 05:55:21 05:58:04 25° 54° (NE) 06:00:49 145.825
JUGNU 01 Jun 06:23:12 06:24:28 11° 355° (N) 06:25:44 437.505
SRMSAT 01 Jun 06:32:29 06:36:49 20° 344° (NNW) 06:41:10 437.500
PHONESAT 2.4 01 Jun 06:37:51 06:40:05 18° 222° (SW) 06:42:20 2401.200-2431.200
HORYU 2 01 Jun 06:38:28 06:42:51 64° 282° (WNW) 06:47:19 437.375
AO-7 01 Jun 06:45:42 06:51:52 23° 287° (WNW) 06:58:05 29.400- 29.500
RS-15 01 Jun 06:49:58 06:57:16 18° 248° (WSW) 07:04:29 29.354- 29.394
Cubesat XI-IV 01 Jun 06:50:32 06:52:12 11° 103° (ESE) 06:53:53 437.490
STARS 01 Jun 07:02:22 07:02:51 10° 257° (WSW) 07:03:19 437.465
BRITE-PL 01 Jun 07:14:02 07:17:28 23° 101° (E) 07:20:47 437.365/2234.400
Cosmos 2504 01 Jun 07:15:19 07:23:05 35° 267° (W) 07:30:48 435.465 / 435.565
NOAA 18 01 Jun 07:24:13 07:29:23 42° 103° (ESE) 07:34:34 137.9125
CUBESAT XI-V 01 Jun 07:27:18 07:31:44 47° 258° (WSW) 07:36:12 437.345
CUTE-I 01 Jun 07:31:50 07:36:50 40° 103° (ESE) 07:41:50 437.470
O/OREOS (USA 219) 01 Jun 08:02:29 08:04:50 14° 105° (ESE) 08:07:09 437.305
PCSat 01 Jun 08:03:00 08:07:25 26° 110° (ESE) 08:11:49 145.827
NOAA 15 01 Jun 08:04:36 08:09:40 50° 282° (WNW) 08:14:44 137.62
JUGNU 01 Jun 08:13:27 08:14:42 11° 5° (N) 08:15:58 437.505
SRMSAT 01 Jun 08:25:13 08:26:53 11° 353° (N) 08:28:33 437.500
Cubesat XI-IV 01 Jun 08:26:52 08:31:57 45° 283° (WNW) 08:37:05 437.490
LilacSat-2 01 Jun 08:27:13 08:30:32 29° 281° (W) 08:33:55 437.200
AIST 1 01 Jun 08:41:40 08:42:38 11° 86° (E) 08:43:36
HO-68 01 Jun 08:49:15 08:54:48 24° 105° (ESE) 09:00:20 435.675
GOMX 1 01 Jun 08:51:14 08:55:05 36° 282° (WNW) 08:58:54 467.674
BRITE-PL 01 Jun 08:53:38 08:55:41 13° 283° (WNW) 08:57:42 437.365/2234.400
M-CUBED/EXP-1 PRIME 01 Jun 08:58:05 09:00:26 17° 107° (ESE) 09:02:54 437.505
STRAND 1 01 Jun 09:04:43 09:09:48 72° 257° (WSW) 09:14:51 437.568
NOAA 18 01 Jun 09:07:14 09:09:45 13° 284° (WNW) 09:12:18 137.9125
CINEMA 3 01 Jun 09:10:18 09:13:53 27° 102° (ESE) 09:17:34 145.822/145.860
CUTE-I 01 Jun 09:14:11 09:16:35 13° 283° (WNW) 09:19:00 437.470
DOVE 4 01 Jun 09:15:09 09:19:07 46° 281° (W) 09:23:09 437.250
SEEDS 01 Jun 09:15:38 09:18:39 19° 102° (ESE) 09:21:41 437.485
GONETS M04 01 Jun 09:19:41 09:25:42 21° 87° (E) 09:31:44
CANX-2 01 Jun 09:21:48 09:25:53 43° 101° (ESE) 09:29:58 2200.000
CUBEBUG 2 01 Jun 09:29:40 09:30:35 11° 103° (ESE) 09:31:31 437.445
O/OREOS (USA 219) 01 Jun 09:40:10 09:43:58 26° 284° (WNW) 09:47:45 437.305
Cosmos 2499 01 Jun 09:44:46 09:50:15 18° 86° (E) 09:55:36 435.465 / 435.565
PCSat 01 Jun 09:46:34 09:50:32 21° 290° (WNW) 09:54:31 145.827
UWE-3 01 Jun 09:47:04 09:48:46 12° 103° (ESE) 09:50:30 435.000/436.395/437.385
CUTE 1.7 + AOD 2 01 Jun 09:47:51 09:52:08 89° 276° (W) 09:56:27 437.475
AAUSAT CUBESAT 2 01 Jun 09:49:35 09:53:10 28° 101° (ESE) 09:56:47 437.432
COMPASS 1 01 Jun 09:51:36 09:55:34 41° 101° (ESE) 09:59:33 437.405
BEESAT 2 01 Jun 09:54:05 09:57:08 21° 112° (ESE) 10:00:11 435.950
JUGNU 01 Jun 10:00:35 10:04:40 19° 15° (NNE) 10:08:45 437.505
PRISM 01 Jun 10:07:19 10:11:27 85° 262° (W) 10:15:35 437.425
Oscar 11 01 Jun 10:12:48 10:15:53 19° 102° (ESE) 10:19:01 145.826/435.025
AIST 1 01 Jun 10:16:25 10:19:57 25° 266° (W) 10:23:29
SRMSAT 01 Jun 10:16:29 10:17:17 10° 4° (N) 10:18:05 437.500
BEESAT 3 01 Jun 10:18:12 10:22:04 68° 291° (WNW) 10:25:57 437.485
AUBIESAT-1 01 Jun 10:20:48 10:23:40 24° 284° (WNW) 10:26:43 437.475
M-CUBED/EXP-1 PRIME 01 Jun 10:33:25 10:34:48 12° 284° (WNW) 10:36:14 437.505
ZACube-1 01 Jun 10:35:39 10:39:40 36° 102° (ESE) 10:43:47 437.345
HO-68 01 Jun 10:35:43 10:42:10 37° 285° (WNW) 10:48:41 435.675
CINEMA 3 01 Jun 10:49:20 10:50:49 12° 281° (W) 10:52:18 145.822/145.860
SEEDS 01 Jun 10:51:23 10:54:05 17° 282° (WNW) 10:56:50 437.485
CUBEBUG 2 01 Jun 11:03:01 11:06:52 32° 281° (W) 11:10:52 437.445
UNISAT 6 01 Jun 11:03:30 11:05:11 12° 79° (ENE) 11:06:51 437.425
TIGRISAT 01 Jun 11:08:50 11:11:00 13° 79° (ENE) 11:13:08 435.000
FUNcube-1 01 Jun 11:10:35 11:14:55 74° 281° (WNW) 11:19:24 145.935
DELFI C3 01 Jun 11:13:07 11:17:03 54° 102° (ESE) 11:20:58 145.870
CUSAT 1 01 Jun 11:13:25 11:17:02 19° 89° (E) 11:21:16 437.405
GONETS M04 01 Jun 11:13:54 11:22:06 48° 267° (W) 11:30:24
UWE-3 01 Jun 11:21:10 11:24:55 28° 281° (W) 11:28:46 435.000/436.395/437.385
AAUSAT CUBESAT 2 01 Jun 11:27:36 11:28:24 10° 282° (WNW) 11:29:12 437.432
BEESAT 2 01 Jun 11:32:57 11:34:43 13° 292° (WNW) 11:36:29 435.950
Cosmos 2499 01 Jun 11:34:24 11:43:02 58° 267° (W) 11:51:26 435.465 / 435.565
HUMSAT D 01 Jun 11:36:16 11:40:17 42° 102° (ESE) 11:44:21 437.325/437.525
SO-50 01 Jun 11:37:36 11:41:43 38° 248° (WSW) 11:45:47 436.795
ANTELSAT 01 Jun 11:41:56 11:46:12 44° 79° (E) 11:50:21 437.575/2403.000
JUGNU 01 Jun 11:48:25 11:54:05 43° 20° (NNE) 11:59:44 437.505
Oscar 11 01 Jun 11:48:52 11:51:45 17° 282° (WNW) 11:54:40 145.826/435.025
DANDE 01 Jun 11:54:31 11:57:00 15° 88° (E) 11:59:50 436.750
SRMSAT 01 Jun 12:03:38 12:07:26 17° 14° (NNE) 12:11:15 437.500
DUCHIFAT 1 01 Jun 12:14:57 12:15:57 11° 78° (ENE) 12:16:57 145.980
CUBEBUG 1 01 Jun 12:20:33 12:21:37 11° 102° (ESE) 12:22:42 437.445
ESTCUBE 1 01 Jun 12:37:26 12:41:33 35° 102° (ESE) 12:45:39 437.505/2401.250
UNISAT 6 01 Jun 12:37:49 12:41:40 28° 258° (WSW) 12:45:26 437.425
VELOX 1 01 Jun 12:38:49 12:42:05 21° 102° (ESE) 12:45:21 145.980
TIGRISAT 01 Jun 12:43:44 12:47:26 25° 258° (WSW) 12:51:03 435.000
AIST 2 01 Jun 12:44:16 12:48:16 51° 292° (WNW) 12:52:16 435.215
CUSAT 1 01 Jun 12:54:07 12:58:37 30° 280° (W) 13:04:12 437.405
UKube-1 01 Jun 12:55:37 12:58:52 21° 102° (ESE) 13:02:08 .
QB50P1 01 Jun 12:55:43 12:59:54 54° 78° (ENE) 13:04:01 145.935-145.965
POPSAT HIP 1 01 Jun 12:55:50 13:00:00 53° 78° (ENE) 13:04:08 437.405
QB50P2 01 Jun 12:59:47 13:04:02 68° 78° (ENE) 13:08:14 145.880/145.840
POLYITAN 1 01 Jun 13:02:17 13:06:32 70° 79° (E) 13:10:45 437.675
NANOSAT C BR1 01 Jun 13:11:05 13:15:21 88° 73° (ENE) 13:19:35 145.865
AISAT 01 Jun 13:14:26 13:18:48 75° 103° (ESE) 13:23:09 437.250
DANDE 01 Jun 13:35:49 13:39:19 23° 281° (W) 13:43:38 436.750
JUGNU 01 Jun 13:37:13 13:43:11 69° 201° (SSW) 13:49:06 437.505
50 SAT 01 Jun 13:43:36 13:46:49 28° 281° (WNW) 13:50:03 437.505
BUGSAT 1 01 Jun 13:43:50 13:48:05 89° 257° (WSW) 13:52:18 437.445
JAS-2 01 Jun 13:45:50 13:51:45 32° 75° (ENE) 13:58:11 435.910
DUCHIFAT 1 01 Jun 13:47:44 13:51:23 28° 258° (WSW) 13:55:02 145.980
DX 1 01 Jun 13:51:04 13:55:08 42° 282° (WNW) 13:59:15 434.975-435.025
SRMSAT 01 Jun 13:51:31 13:57:03 39° 20° (NNE) 14:02:33 437.500
CUBEBUG 1 01 Jun 13:53:54 13:57:38 29° 282° (WNW) 14:01:23 437.445
SPROUT 01 Jun 13:56:47 14:01:01 87° 105° (ESE) 14:05:18 437.525
TISAT 1 01 Jun 14:03:17 14:06:09 18° 102° (ESE) 14:09:01 437.305
VELOX 1 01 Jun 14:15:31 14:18:16 17° 282° (WNW) 14:21:03 145.980
ESTCUBE 1 01 Jun 14:17:44 14:18:04 10° 282° (WNW) 14:18:24 437.505/2401.250
UKube-1 01 Jun 14:32:06 14:34:38 15° 282° (WNW) 14:37:12 .
Gurwin Techsat 1B 01 Jun 14:51:26 14:54:55 18° 77° (ENE) 14:58:24 435.225
Oscar 19 01 Jun 15:24:57 15:30:02 56° 258° (WSW) 15:35:06 437.125/150
JUGNU 01 Jun 15:27:26 15:32:22 26° 198° (SSW) 15:37:17 437.505
JAS-2 01 Jun 15:30:53 15:36:27 28° 259° (W) 15:42:31 435.910
SWISSCUBE 01 Jun 15:35:02 15:39:39 48° 103° (ESE) 15:44:16 437.505
TISAT 1 01 Jun 15:38:53 15:41:32 17° 282° (WNW) 15:44:13 437.305
SRMSAT 01 Jun 15:40:21 15:46:17 76° 201° (SSW) 15:52:12 437.500
ITUPSAT 1 01 Jun 15:43:59 15:48:40 54° 102° (ESE) 15:53:22 437.325
YUBILEINY 01 Jun 16:00:36 16:08:14 34° 93° (E) 16:15:47 435.215
BEESAT 01 Jun 16:03:55 16:08:41 79° 283° (WNW) 16:13:29 436.000
RS-15 01 Jun 16:15:35 16:26:17 62° 110° (ESE) 16:37:20 29.354- 29.394
ITAMSAT 1 01 Jun 16:17:59 16:23:05 60° 77° (ENE) 16:28:09 435.822/435.867
Cosmos 2491 01 Jun 16:29:02 16:37:37 66° 87° (E) 16:46:14 435.465 / 435.565
Gurwin Techsat 1B 01 Jun 16:30:03 16:34:35 29° 257° (WSW) 16:39:08 435.225
PHONESAT 2.4 01 Jun 16:31:08 16:32:20 12° 138° (SE) 16:33:31 2401.200-2431.200
MOZHAYETS 4 01 Jun 16:32:24 16:33:15 10° 102° (ESE) 16:34:06
AO-85 01 Jun 17:04:47 17:08:35 45° 249° (WSW) 17:12:14 145.980
KKS-1 01 Jun 17:11:57 17:16:17 57° 102° (ESE) 17:20:38 437.445
AO-7 01 Jun 17:17:38 17:25:55 76° 74° (ENE) 17:34:10 29.400- 29.500
JUGNU 01 Jun 17:19:27 17:22:03 13° 190° (S) 17:24:37 437.505
ISS 01 Jun 17:29:41 17:31:45 16° 126° (SE) 17:33:49 145.825
SRMSAT 01 Jun 17:30:34 17:35:36 28° 198° (SSW) 17:40:39 437.500
STARS 01 Jun 17:33:22 17:37:33 47° 102° (ESE) 17:41:45 437.465
Cosmos 2504 01 Jun 17:34:52 17:41:18 36° 93° (E) 17:47:46 435.465 / 435.565
YUBILEINY 01 Jun 17:57:22 18:04:37 30° 273° (W) 18:11:54 435.215
MOZHAYETS 4 01 Jun 18:05:53 18:10:07 36° 282° (WNW) 18:14:23
PHONESAT 2.4 01 Jun 18:06:08 18:08:55 30° 317° (NW) 18:11:43 2401.200-2431.200
CUBESAT XI-V 01 Jun 18:10:24 18:12:58 15° 102° (ESE) 18:15:30 437.345
Cosmos 2491 01 Jun 18:30:12 18:34:04 14° 267° (W) 18:37:58 435.465 / 435.565
RS-15 01 Jun 18:30:43 18:38:22 21° 293° (WNW) 18:46:17 29.354- 29.394
HORYU 2 01 Jun 18:51:15 18:55:27 41° 258° (WSW) 18:59:37 437.375
NOAA 15 01 Jun 19:03:00 19:07:32 29° 77° (ENE) 19:12:02 137.62
ISS 01 Jun 19:06:01 19:07:59 15° 306° (NW) 19:09:57 145.825
AO-7 01 Jun 19:15:11 19:18:12 12° 252° (WSW) 19:21:15 29.400- 29.500
